Change the Weather History Date:

Saturday, November 16, 2013

  Actual Average (PHNL) Record (PHNL)
Temperature  
Mean Temperature 75 °F 78 °F  
Max Temperature 82 °F 84 °F 88 °F (1969)
Min Temperature 68 °F 71 °F 62 °F (1974)
Degree Days  
Heating Degree Days 0 0  
Month to date heating degree days 0  
Since 1 July heating degree days 0  
Cooling Degree Days 10 13  
Month to date cooling degree days 214  
Year to date cooling degree days 4160  
Growing Degree Days 25 (Base 50)    
Moisture  
Dew Point 67 °F    
Average Humidity 79    
Maximum Humidity 96    
Minimum Humidity 56    
Precipitation  
Precipitation 0.00 in 0.08 in 3.95 in (1887)
Month to date precipitation 1.35  
Year to date precipitation 12.79  
Snow  
Snow 0.00 in - - ()
Month to date snowfall  
Since 1 July snowfall  
Since 1 September snowfall  
Snow Depth -    
Sea Level Pressure  
Sea Level Pressure 30.04 in    
Wind  
Wind Speed 2 mph (ENE)    
Max Wind Speed 10 mph    
Max Gust Speed 16 mph    
Visibility 10 miles    
Events      
T = Trace of Precipitation, MM = Missing Value Source: NWS Daily Summary

Daily Weather History Graph

Daily Weather History Graph

Search for Another Location

Airport or City:

Trip Planner

Search our weather history database for the weather conditions in past years. The results will help you decide how hot, cold, wet, or windy it might be!

Date:

Astronomy

Nov. 16, 2013 Rise Set
Actual Time 6:43 AM HST 5:50 PM HST
Civil Twilight 6:20 AM HST 6:13 PM HST
Nautical Twilight 5:53 AM HST 6:40 PM HST
Astronomical Twilight 5:26 AM HST 7:07 PM HST
Moon 5:29 PM HST (11/16) 5:56 AM HST (11/16)
Length of Visible Light 11h 53m
Length of Day
11h 06m
Waxing Gibbous, 99% of the Moon is Illuminated
Nov 16
Waxing Gibbous
Nov 17
Full
Nov 25
Last Quarter
Dec 2
New
Dec 9
First Quarter

Hourly Weather History & Observations

Time (HST) Temp. Heat Index Dew Point Humidity Pressure Visibility Wind Dir Wind Speed Gust Speed Precip Events Conditions
12:53 AM 71.1 °F - 66.9 °F 87% 30.06 in 10.0 mi Calm Calm - N/A   Clear
1:53 AM 70.0 °F - 66.9 °F 90% 30.06 in 10.0 mi Calm Calm - N/A   Clear
2:53 AM 69.1 °F - 66.9 °F 93% 30.04 in 10.0 mi Calm Calm - N/A   Clear
3:53 AM 68.0 °F - 66.9 °F 96% 30.04 in 10.0 mi NNE 3.5 mph - N/A   Clear
4:53 AM 69.1 °F - 66.0 °F 90% 30.04 in 10.0 mi Calm Calm - N/A   Clear
5:53 AM 70.0 °F - 66.9 °F 90% 30.04 in 10.0 mi ENE 3.5 mph - N/A   Clear
6:53 AM 68.0 °F - 66.9 °F 96% 30.06 in 10.0 mi Calm Calm - N/A   Clear
7:53 AM 73.0 °F - 69.1 °F 87% 30.08 in 10.0 mi Calm Calm - N/A   Partly Cloudy
8:53 AM 79.0 °F - 68.0 °F 69% 30.09 in 10.0 mi Variable 3.5 mph - N/A   Partly Cloudy
9:53 AM 78.1 °F - 68.0 °F 71% 30.08 in 10.0 mi Variable 3.5 mph - N/A   Mostly Cloudy
10:53 AM 80.1 °F 82.7 °F 68.0 °F 67% 30.06 in 10.0 mi Variable 5.8 mph - N/A   Overcast
11:53 AM 80.1 °F 82.7 °F 68.0 °F 67% 30.04 in 10.0 mi Variable 5.8 mph - N/A   Mostly Cloudy
12:53 PM 82.0 °F 84.9 °F 68.0 °F 62% 30.02 in 10.0 mi ENE 10.4 mph 16.1 mph N/A   Overcast
1:53 PM 80.1 °F 82.3 °F 66.9 °F 64% 29.99 in 10.0 mi Variable 5.8 mph - N/A   Mostly Cloudy
2:53 PM 82.9 °F 85.0 °F 66.0 °F 56% 29.98 in 10.0 mi Variable 6.9 mph - N/A   Clear
3:53 PM 79.0 °F - 66.0 °F 64% 29.98 in 10.0 mi ENE 8.1 mph - N/A   Scattered Clouds
4:53 PM 78.1 °F - 68.0 °F 71% 29.99 in 10.0 mi Variable 3.5 mph - N/A   Partly Cloudy
5:53 PM 75.9 °F - 68.0 °F 76% 30.01 in 10.0 mi ENE 4.6 mph - N/A   Partly Cloudy
6:53 PM 75.0 °F - 66.9 °F 76% 30.02 in 10.0 mi East 5.8 mph - N/A   Clear
7:53 PM 73.0 °F - 66.9 °F 81% 30.04 in 10.0 mi ENE 3.5 mph - N/A   Clear
8:53 PM 72.0 °F - 66.9 °F 84% 30.06 in 10.0 mi ENE 3.5 mph - N/A   Clear
9:53 PM 72.0 °F - 66.9 °F 84% 30.07 in 10.0 mi ENE 3.5 mph - N/A   Clear
10:53 PM 71.1 °F - 66.0 °F 84% 30.07 in 10.0 mi ENE 3.5 mph - N/A   Clear
11:53 PM 71.1 °F - 66.0 °F 84% 30.06 in 10.0 mi Calm Calm - N/A   Mostly Cloudy